When you browse on this site, cookies collect data to enhance your experience and personalize the content and advertising you see.
Visit our Privacy Policy to learn more. By continuing to use the site, you agree to this use of cookies and data.
  • In Latvia
  • List of Countries
  • For 7 days
  • Water Temperature
  • Weather Map
  • Weather Widgets
  • user-avatar
    Login

    Hourly Weather Muttenz

    Today, 17 September, Tuesday

    Time Temperature Precipitation Wind Pressure Humidity
    00:00 +16°C° 0 mm 0 mps 726 mmHg 80%
    01:00 +15°C° 0 mm 0 mps 726 mmHg 78%
    02:00 +15°C° 0 mm 0 mps 726 mmHg 78%
    03:00 +14°C° 0 mm 0 mps 725 mmHg 78%
    04:00 +14°C° 0 mm 0 mps 725 mmHg 79%
    05:00 +14°C° 0 mm 0 mps 725 mmHg 79%
    06:00 +14°C° 0 mm 0 mps 725 mmHg 80%
    07:00 +14°C° 0 mm 0 mps 726 mmHg 81%
    08:00 +18°C° 0 mm 1 mps 726 mmHg 74%
    09:00 +20°C° 0 mm 1 mps 726 mmHg 68%
    10:00 +22°C° 0 mm 1 mps 726 mmHg 61%
    11:00 +21°C° 0 mm 2 mps 726 mmHg 59%
    12:00 +23°C° 0 mm 2 mps 726 mmHg 57%
    13:00 +24°C° 0 mm 2 mps 726 mmHg 56%
    14:00 +24°C° 0 mm 3 mps 726 mmHg 60%
    15:00 +22°C° 0 mm 3 mps 726 mmHg 63%
    16:00 +22°C° 0 mm 3 mps 725 mmHg 67%
    17:00 +20°C° 0 mm 2 mps 725 mmHg 74%
    18:00 +18°C° 0 mm 2 mps 725 mmHg 81%
    19:00 +16°C° 0 mm 1 mps 726 mmHg 89%
    20:00 +16°C° 0 mm 1 mps 726 mmHg 87%
    21:00 +15°C° 0 mm 1 mps 726 mmHg 86%
    22:00 +15°C° 0 mm 1 mps 726 mmHg 84%
    23:00 +14°C° 0 mm 2 mps 726 mmHg 81%

    Tomorrow, 18 September, Wednesday

    Time Temperature Precipitation Wind Pressure Humidity
    00:00 +14°C° 0 mm 2 mps 726 mmHg 79%
    01:00 +13°C° 0 mm 2 mps 726 mmHg 76%
    02:00 +12°C° 0 mm 2 mps 726 mmHg 79%
    03:00 +10°C° 0 mm 2 mps 726 mmHg 81%
    04:00 +9°C° 0 mm 2 mps 726 mmHg 84%
    05:00 +9°C° 0 mm 2 mps 726 mmHg 84%
    06:00 +9°C° 0 mm 2 mps 726 mmHg 85%
    07:00 +9°C° 0 mm 2 mps 727 mmHg 85%
    08:00 +10°C° 0 mm 2 mps 727 mmHg 78%
    09:00 +12°C° 0 mm 3 mps 727 mmHg 71%
    10:00 +14°C° 0 mm 3 mps 727 mmHg 64%
    11:00 +16°C° 0 mm 3 mps 727 mmHg 60%
    12:00 +17°C° 0 mm 4 mps 727 mmHg 55%
    13:00 +19°C° 0 mm 4 mps 727 mmHg 51%
    14:00 +19°C° 0 mm 4 mps 727 mmHg 49%
    15:00 +19°C° 0 mm 4 mps 726 mmHg 47%
    16:00 +18°C° 0 mm 4 mps 726 mmHg 45%
    17:00 +16°C° 0 mm 3 mps 726 mmHg 50%
    18:00 +13°C° 0 mm 3 mps 726 mmHg 56%
    19:00 +12°C° 0 mm 2 mps 726 mmHg 61%
    20:00 +12°C° 0 mm 2 mps 727 mmHg 65%
    21:00 +10°C° 0 mm 2 mps 727 mmHg 69%
    22:00 +9°C° 0 mm 2 mps 728 mmHg 73%
    23:00 +8°C° 0 mm 2 mps 728 mmHg 74%

    Day after tomorrow, 19 September, Thursday

    Time Temperature Precipitation Wind Pressure Humidity
    00:00 +8°C° 0 mm 2 mps 728 mmHg 75%
    01:00 +7°C° 0 mm 2 mps 728 mmHg 76%
    02:00 +7°C° 0 mm 2 mps 728 mmHg 77%
    03:00 +7°C° 0 mm 1 mps 727 mmHg 78%
    04:00 +7°C° 0 mm 1 mps 727 mmHg 79%
    05:00 +7°C° 0 mm 1 mps 727 mmHg 78%
    06:00 +7°C° 0 mm 1 mps 728 mmHg 78%
    07:00 +7°C° 0 mm 1 mps 728 mmHg 78%
    08:00 +8°C° 0 mm 2 mps 728 mmHg 70%
    09:00 +10°C° 0 mm 3 mps 728 mmHg 62%
    10:00 +13°C° 0 mm 3 mps 729 mmHg 54%
    11:00 +14°C° 0 mm 4 mps 729 mmHg 51%
    12:00 +15°C° 0 mm 4 mps 729 mmHg 47%
    13:00 +18°C° 0 mm 4 mps 729 mmHg 44%
    14:00 +18°C° 0 mm 4 mps 728 mmHg 44%
    15:00 +18°C° 0 mm 4 mps 728 mmHg 44%
    16:00 +18°C° 0 mm 4 mps 728 mmHg 45%
    17:00 +15°C° 0 mm 4 mps 728 mmHg 51%
    18:00 +13°C° 0 mm 3 mps 728 mmHg 58%
    19:00 +11°C° 0 mm 3 mps 728 mmHg 64%
    20:00 +10°C° 0 mm 2 mps 728 mmHg 67%
    21:00 +9°C° 0 mm 2 mps 729 mmHg 69%
    22:00 +8°C° 0 mm 2 mps 729 mmHg 72%
    23:00 +7°C° 0 mm 2 mps 729 mmHg 72%

    20 September, Friday

    Time Temperature Precipitation Wind Pressure Humidity
    00:00 +7°C° 0 mm 2 mps 729 mmHg 73%
    01:00 +6°C° 0 mm 2 mps 728 mmHg 74%
    02:00 +7°C° 0 mm 1 mps 728 mmHg 75%
    03:00 +6°C° 0 mm 1 mps 728 mmHg 76%
    04:00 +6°C° 0 mm 1 mps 728 mmHg 77%
    05:00 +6°C° 0 mm 1 mps 728 mmHg 76%
    06:00 +6°C° 0 mm 1 mps 728 mmHg 76%
    07:00 +6°C° 0 mm 1 mps 728 mmHg 76%
    08:00 +7°C° 0 mm 2 mps 728 mmHg 68%
    09:00 +10°C° 0 mm 2 mps 728 mmHg 61%
    10:00 +13°C° 0 mm 2 mps 728 mmHg 53%
    11:00 +14°C° 0 mm 3 mps 728 mmHg 50%
    12:00 +16°C° 0 mm 3 mps 728 mmHg 47%
    13:00 +18°C° 0 mm 3 mps 727 mmHg 44%
    14:00 +18°C° 0 mm 3 mps 727 mmHg 44%
    15:00 +18°C° 0 mm 3 mps 727 mmHg 45%
    16:00 +19°C° 0 mm 3 mps 727 mmHg 46%
    17:00 +16°C° 0 mm 2 mps 727 mmHg 54%
    18:00 +14°C° 0 mm 2 mps 726 mmHg 63%
    19:00 +12°C° 0 mm 2 mps 726 mmHg 72%
    20:00 +10°C° 0 mm 2 mps 726 mmHg 76%
    21:00 +9°C° 0 mm 2 mps 726 mmHg 79%
    22:00 +10°C° 0 mm 1 mps 726 mmHg 83%
    23:00 +9°C° 0 mm 1 mps 726 mmHg 84%

    21 September, Saturday

    Time Temperature Precipitation Wind Pressure Humidity
    00:00 +9°C° 0 mm 1 mps 726 mmHg 86%
    01:00 +8°C° 0 mm 1 mps 726 mmHg 87%
    02:00 +8°C° 0 mm 1 mps 726 mmHg 88%
    03:00 +8°C° 0 mm 1 mps 726 mmHg 88%
    04:00 +8°C° 0 mm 1 mps 725 mmHg 89%
    05:00 +9°C° 0 mm 1 mps 725 mmHg 88%
    06:00 +9°C° 0 mm 1 mps 725 mmHg 88%
    07:00 +9°C° 0 mm 1 mps 725 mmHg 87%
    08:00 +12°C° 0 mm 1 mps 725 mmHg 79%
    09:00 +15°C° 0 mm 1 mps 726 mmHg 70%
    10:00 +19°C° 0 mm 1 mps 726 mmHg 61%
    11:00 +21°C° 0 mm 1 mps 726 mmHg 57%
    12:00 +23°C° 0 mm 1 mps 726 mmHg 52%
    13:00 +25°C° 0 mm 2 mps 725 mmHg 48%
    14:00 +25°C° 0 mm 1 mps 725 mmHg 50%
    15:00 +25°C° 0 mm 1 mps 725 mmHg 52%
    16:00 +25°C° 0 mm 1 mps 725 mmHg 53%
    17:00 +23°C° 0 mm 1 mps 725 mmHg 58%
    18:00 +22°C° 0 mm 1 mps 725 mmHg 63%
    19:00 +20°C° 0 mm 1 mps 724 mmHg 68%
    20:00 +19°C° 0 mm 1 mps 724 mmHg 71%
    21:00 +18°C° 0 mm 1 mps 724 mmHg 75%
    22:00 +15°C° 0 mm 0 mps 724 mmHg 78%
    23:00 +15°C° 0 mm 0 mps 724 mmHg 79%

    22 September, Sunday

    Time Temperature Precipitation Wind Pressure Humidity
    00:00 +15°C° 0 mm 1 mps 723 mmHg 81%
    01:00 +15°C° 0 mm 1 mps 723 mmHg 83%
    02:00 +15°C° 0 mm 1 mps 723 mmHg 85%
    03:00 +15°C° 0 mm 1 mps 723 mmHg 87%
    04:00 +14°C° 0 mm 1 mps 723 mmHg 89%
    05:00 +14°C° 0 mm 1 mps 723 mmHg 88%
    06:00 +14°C° 0 mm 1 mps 723 mmHg 88%
    07:00 +14°C° 0 mm 1 mps 723 mmHg 88%
    08:00 +18°C° 0 mm 1 mps 723 mmHg 79%
    09:00 +20°C° 0 mm 1 mps 723 mmHg 71%
    10:00 +22°C° 0 mm 1 mps 723 mmHg 62%
    11:00 +22°C° 0 mm 1 mps 723 mmHg 62%
    12:00 +23°C° 0 mm 1 mps 723 mmHg 62%
    13:00 +23°C° 0 mm 1 mps 723 mmHg 62%
    14:00 +23°C° 0.1 mm 1 mps 722 mmHg 66%
    15:00 +22°C° 0.1 mm 1 mps 722 mmHg 70%
    16:00 +22°C° 0.1 mm 1 mps 722 mmHg 73%
    17:00 +21°C° 0 mm 1 mps 722 mmHg 78%
    18:00 +20°C° 0 mm 1 mps 722 mmHg 82%
    19:00 +19°C° 0 mm 1 mps 721 mmHg 87%
    20:00 +18°C° 0.3 mm 1 mps 722 mmHg 89%
    21:00 +18°C° 0.3 mm 1 mps 722 mmHg 91%
    22:00 +18°C° 0.3 mm 1 mps 722 mmHg 94%
    23:00 +18°C° 2.6 mm 1 mps 722 mmHg 95%
    Show more